Location: Brantford
(43.1330°N, 80.2670°W)
Time: 16:50:32
(UTC-05:00)

Vanguard 2 Rocket - All Passes

Search period start: 21 November 2019 00:00
Search period end: 01 December 2019 00:00
Orbit: 554 x 3326 km, 32.9° (Epoch: 21 November)

Date Brightness Start Highest point End Pass type
(mag) Time Alt. Az. Time Alt. Az. Time Alt. Az.
21 Nov - 02:03:03 10° SW 02:06:32 25° S 02:11:03 10° ESE visible
21 Nov - 04:14:31 10° WSW 04:19:01 27° S 04:25:40 10° SE visible
21 Nov - 06:27:54 10° SW 06:32:27 16° SSW 06:38:24 10° SSE visible
22 Nov - 01:04:35 10° SSW 01:07:29 19° SSE 01:10:48 10° ESE night (unlit)
22 Nov - 03:15:46 10° WSW 03:19:40 26° S 03:25:08 10° SE visible
22 Nov - 05:28:21 10° WSW 05:32:39 18° SSW 05:38:31 10° SSE visible
23 Nov - 00:06:15 10° SSW 00:08:27 14° SSE 00:10:42 10° SE night (unlit)
23 Nov - 02:17:03 10° SW 02:20:29 24° S 02:24:53 10° SE visible
23 Nov - 04:29:10 10° WSW 04:33:05 20° SSW 04:38:25 10° SSE visible
23 Nov - 23:08:32 10° S 23:09:22 10° SSE 23:10:09 10° SSE night (unlit)
24 Nov - 01:18:19 10° SW 01:21:24 21° S 01:24:55 10° ESE night (unlit)
24 Nov - 03:30:11 10° WSW 03:33:42 21° S 03:38:21 10° SE visible
24 Nov - 05:45:02 10° SW 05:46:45 11° SSW 05:48:40 10° S visible
25 Nov - 00:19:32 10° SW 00:22:21 18° S 00:25:13 10° SE night (unlit)
25 Nov - 02:31:17 10° SW 02:34:28 21° S 02:38:26 10° SE visible
25 Nov - 04:44:42 10° SW 04:47:09 13° SSW 04:50:04 10° S visible
25 Nov - 23:20:40 10° SSW 23:23:16 16° S 23:25:41 10° SE night (unlit)
26 Nov - 01:32:20 10° SW 01:35:21 21° S 01:38:46 10° SE night (unlit)
26 Nov - 03:45:10 10° SW 03:47:44 14° SSW 03:50:49 10° SSE visible
26 Nov - 22:21:45 10° SSW 22:24:06 13° SSE 22:26:13 10° SE night (unlit)
27 Nov - 00:33:16 10° SW 00:36:18 20° S 00:39:20 10° SE night (unlit)
27 Nov - 02:45:53 10° SW 02:48:28 16° S 02:51:30 10° SSE night (unlit)
27 Nov - 21:22:56 10° S 21:24:50 12° SSE 21:26:32 10° SE night (unlit)
27 Nov - 23:34:00 10° SW 23:37:13 20° S 23:40:08 10° SE night (unlit)
28 Nov - 01:46:39 10° SW 01:49:20 17° S 01:52:16 10° SE night (unlit)
28 Nov - 22:34:30 10° SW 22:38:06 19° S 22:41:05 10° SE night (unlit)
29 Nov - 00:47:18 10° SW 00:50:15 19° S 00:53:11 10° SE night (unlit)
29 Nov - 21:34:48 10° SSW 21:38:52 18° S 21:42:04 10° SE visible
29 Nov - 23:47:44 10° SW 23:51:11 21° S 23:54:15 10° SE night (unlit)
30 Nov - 02:01:30 10° SW 02:03:16 13° SSW 02:05:06 10° S night (unlit)
30 Nov - 20:35:01 10° SSW 20:39:29 17° SSE 20:42:56 10° SE visible
30 Nov - 22:47:55 10° SW 22:52:06 23° S 22:55:26 10° SE night (unlit)
